Location: �terpigny
(49.8910°N, 2.9249°E)
Time: 19:37:24
(UTC+00:00)

NANOSAT C BR1 - Pass Details

Date: 09 July 2022
Orbit: 584 x 599 km, 98.0° (Epoch: 17 August)

Event Time Altitude Azimuth Distance (km) Brightness Sun altitude
Rises 00:44:26 0° 30° (NNE) 2,858 ? -16.9°
Reaches altitude 10° 00:47:35 10° 56° (NE) 1,951 ? -16.7°
Maximum altitude 00:49:52 14° 89° (E) 1,687 ? -16.7°
Drops below altitude 10° 00:52:09 10° 122° (ESE) 1,943 ? -16.6°
Enters shadow 00:53:02 - 131° (SE) 2,154 ? -16.5°
